When you browse on this site, cookies collect data to enhance your experience and personalize the content and advertising you see.
Visit our Privacy Policy to learn more. By continuing to use the site, you agree to this use of cookies and data.
  • In Spain
  • List of Countries
  • For 7 days
  • Water Temperature
  • Satellite Maps
  • Weather Map
  • Weather Widgets
  • user-avatar
    Login

    Hourly Weather Brikama

    Today, 17 November, Saturday

    Time Temperature Precipitation Wind Pressure Humidity
    00:00 +28°C° 0 mm 6 mps 757 mmHg 47%
    01:00 +28°C° 0 mm 6 mps 756 mmHg 47%
    02:00 +28°C° 0 mm 6 mps 756 mmHg 47%
    03:00 +27°C° 0 mm 6 mps 756 mmHg 46%
    04:00 +27°C° 0 mm 5 mps 756 mmHg 46%
    05:00 +27°C° 0 mm 5 mps 756 mmHg 43%
    06:00 +27°C° 0 mm 5 mps 756 mmHg 40%
    07:00 +28°C° 0 mm 5 mps 757 mmHg 38%
    08:00 +29°C° 0 mm 5 mps 757 mmHg 35%
    09:00 +32°C° 0 mm 5 mps 757 mmHg 31%
    10:00 +34°C° 0 mm 4 mps 757 mmHg 26%
    11:00 +36°C° 0 mm 4 mps 756 mmHg 22%
    12:00 +37°C° 0 mm 5 mps 756 mmHg 24%
    13:00 +38°C° 0 mm 6 mps 756 mmHg 25%
    14:00 +38°C° 0 mm 6 mps 755 mmHg 27%
    15:00 +35°C° 0 mm 7 mps 756 mmHg 33%
    16:00 +34°C° 0 mm 8 mps 756 mmHg 39%
    17:00 +32°C° 0 mm 9 mps 756 mmHg 46%
    18:00 +31°C° 0 mm 9 mps 756 mmHg 50%
    19:00 +29°C° 0 mm 9 mps 757 mmHg 55%
    20:00 +28°C° 0 mm 9 mps 757 mmHg 60%
    21:00 +28°C° 0 mm 8 mps 757 mmHg 61%
    22:00 +28°C° 0 mm 8 mps 757 mmHg 63%
    23:00 +28°C° 0 mm 8 mps 757 mmHg 65%

    Tomorrow, 18 November, Sunday

    Time Temperature Precipitation Wind Pressure Humidity
    00:00 +27°C° 0 mm 8 mps 757 mmHg 64%
    01:00 +27°C° 0 mm 8 mps 756 mmHg 62%
    02:00 +27°C° 0 mm 7 mps 756 mmHg 61%
    03:00 +27°C° 0 mm 7 mps 756 mmHg 62%
    04:00 +27°C° 0 mm 7 mps 756 mmHg 63%
    05:00 +27°C° 0 mm 7 mps 756 mmHg 63%
    06:00 +27°C° 0.1 mm 7 mps 757 mmHg 64%
    07:00 +28°C° 0.1 mm 7 mps 757 mmHg 64%
    08:00 +28°C° 0.1 mm 6 mps 758 mmHg 64%
    09:00 +28°C° 0.2 mm 5 mps 758 mmHg 62%
    10:00 +28°C° 0.2 mm 4 mps 758 mmHg 60%
    11:00 +28°C° 0.2 mm 3 mps 758 mmHg 59%
    12:00 +28°C° 0.2 mm 3 mps 757 mmHg 58%
    13:00 +28°C° 0.2 mm 2 mps 757 mmHg 57%
    14:00 +28°C° 0.2 mm 1 mps 756 mmHg 56%
    15:00 +28°C° 0 mm 1 mps 756 mmHg 57%
    16:00 +28°C° 0 mm 1 mps 756 mmHg 58%
    17:00 +28°C° 0 mm 1 mps 756 mmHg 59%
    18:00 +27°C° 0 mm 1 mps 756 mmHg 60%
    19:00 +27°C° 0 mm 1 mps 757 mmHg 60%
    20:00 +27°C° 0 mm 1 mps 757 mmHg 61%
    21:00 +27°C° 0 mm 1 mps 757 mmHg 63%
    22:00 +27°C° 0 mm 2 mps 758 mmHg 65%
    23:00 +27°C° 0 mm 2 mps 758 mmHg 67%

    Day after tomorrow, 19 November, Monday

    Time Temperature Precipitation Wind Pressure Humidity
    00:00 +26°C° 0 mm 2 mps 757 mmHg 68%
    01:00 +26°C° 0 mm 2 mps 757 mmHg 69%
    02:00 +25°C° 0 mm 2 mps 757 mmHg 71%
    03:00 +25°C° 0 mm 2 mps 757 mmHg 71%
    04:00 +25°C° 0 mm 2 mps 756 mmHg 71%
    05:00 +25°C° 0 mm 2 mps 756 mmHg 71%
    06:00 +26°C° 0 mm 2 mps 757 mmHg 68%
    07:00 +26°C° 0 mm 3 mps 757 mmHg 65%
    08:00 +27°C° 0 mm 3 mps 757 mmHg 63%
    09:00 +28°C° 0.1 mm 3 mps 757 mmHg 57%
    10:00 +30°C° 0.1 mm 3 mps 757 mmHg 51%
    11:00 +31°C° 0.1 mm 3 mps 757 mmHg 46%
    12:00 +33°C° 0 mm 3 mps 757 mmHg 43%
    13:00 +34°C° 0 mm 3 mps 756 mmHg 40%
    14:00 +35°C° 0 mm 3 mps 755 mmHg 38%
    15:00 +34°C° 0 mm 3 mps 755 mmHg 41%
    16:00 +33°C° 0 mm 4 mps 755 mmHg 45%
    17:00 +33°C° 0 mm 5 mps 755 mmHg 49%
    18:00 +30°C° 0 mm 5 mps 755 mmHg 55%
    19:00 +29°C° 0 mm 5 mps 756 mmHg 60%
    20:00 +28°C° 0 mm 5 mps 757 mmHg 66%
    21:00 +28°C° 0 mm 5 mps 757 mmHg 66%
    22:00 +27°C° 0 mm 4 mps 757 mmHg 66%
    23:00 +27°C° 0 mm 4 mps 757 mmHg 66%

    20 November, Tuesday

    Time Temperature Precipitation Wind Pressure Humidity
    00:00 +27°C° 0 mm 4 mps 757 mmHg 65%
    01:00 +26°C° 0 mm 4 mps 756 mmHg 64%
    02:00 +26°C° 0 mm 4 mps 756 mmHg 64%
    03:00 +25°C° 0 mm 4 mps 756 mmHg 63%
    04:00 +25°C° 0 mm 4 mps 756 mmHg 63%
    05:00 +25°C° 0 mm 4 mps 756 mmHg 62%
    06:00 +25°C° 0 mm 4 mps 756 mmHg 58%
    07:00 +26°C° 0 mm 4 mps 757 mmHg 54%
    08:00 +27°C° 0 mm 4 mps 758 mmHg 50%
    09:00 +29°C° 0 mm 4 mps 758 mmHg 45%
    10:00 +32°C° 0 mm 4 mps 758 mmHg 39%
    11:00 +34°C° 0 mm 4 mps 758 mmHg 34%
    12:00 +35°C° 0 mm 4 mps 757 mmHg 33%
    13:00 +36°C° 0 mm 4 mps 756 mmHg 32%
    14:00 +36°C° 0 mm 3 mps 755 mmHg 31%
    15:00 +35°C° 0 mm 4 mps 755 mmHg 35%
    16:00 +34°C° 0 mm 5 mps 755 mmHg 39%
    17:00 +33°C° 0 mm 5 mps 755 mmHg 44%
    18:00 +32°C° 0 mm 5 mps 755 mmHg 50%
    19:00 +29°C° 0 mm 5 mps 756 mmHg 56%
    20:00 +28°C° 0 mm 5 mps 757 mmHg 62%
    21:00 +28°C° 0 mm 5 mps 757 mmHg 62%
    22:00 +28°C° 0 mm 5 mps 757 mmHg 63%
    23:00 +27°C° 0 mm 5 mps 757 mmHg 63%

    21 November, Wednesday

    Time Temperature Precipitation Wind Pressure Humidity
    00:00 +27°C° 0 mm 5 mps 757 mmHg 63%
    01:00 +26°C° 0 mm 5 mps 756 mmHg 63%
    02:00 +26°C° 0 mm 4 mps 756 mmHg 63%
    03:00 +25°C° 0 mm 4 mps 756 mmHg 61%
    04:00 +25°C° 0 mm 4 mps 756 mmHg 59%
    05:00 +25°C° 0 mm 4 mps 756 mmHg 58%
    06:00 +26°C° 0 mm 5 mps 757 mmHg 54%
    07:00 +27°C° 0 mm 5 mps 757 mmHg 50%
    08:00 +27°C° 0 mm 5 mps 758 mmHg 46%
    09:00 +30°C° 0 mm 5 mps 757 mmHg 41%
    10:00 +33°C° 0 mm 4 mps 757 mmHg 37%
    11:00 +35°C° 0 mm 4 mps 757 mmHg 33%
    12:00 +36°C° 0 mm 4 mps 757 mmHg 32%
    13:00 +36°C° 0 mm 3 mps 756 mmHg 31%
    14:00 +37°C° 0 mm 3 mps 755 mmHg 30%
    15:00 +36°C° 0 mm 4 mps 755 mmHg 34%
    16:00 +35°C° 0 mm 4 mps 755 mmHg 39%
    17:00 +33°C° 0 mm 5 mps 755 mmHg 43%
    18:00 +32°C° 0 mm 5 mps 755 mmHg 49%
    19:00 +30°C° 0 mm 5 mps 756 mmHg 55%
    20:00 +29°C° 0 mm 5 mps 756 mmHg 61%
    21:00 +28°C° 0 mm 5 mps 756 mmHg 62%
    22:00 +28°C° 0 mm 6 mps 756 mmHg 62%
    23:00 +28°C° 0 mm 6 mps 756 mmHg 63%

    22 November, Thursday

    Time Temperature Precipitation Wind Pressure Humidity
    00:00 +27°C° 0 mm 6 mps 756 mmHg 63%
    01:00 +27°C° 0 mm 5 mps 756 mmHg 64%
    02:00 +27°C° 0 mm 5 mps 755 mmHg 64%
    03:00 +26°C° 0 mm 5 mps 756 mmHg 64%
    04:00 +26°C° 0 mm 5 mps 756 mmHg 65%
    05:00 +26°C° 0 mm 5 mps 756 mmHg 65%
    06:00 +26°C° 0 mm 6 mps 756 mmHg 63%
    07:00 +27°C° 0 mm 6 mps 757 mmHg 61%
    08:00 +27°C° 0 mm 6 mps 757 mmHg 59%
    09:00 +30°C° 0 mm 6 mps 757 mmHg 50%
    10:00 +33°C° 0 mm 6 mps 757 mmHg 41%
    11:00 +35°C° 0 mm 5 mps 757 mmHg 32%
    12:00 +36°C° 0 mm 5 mps 756 mmHg 30%
    13:00 +37°C° 0 mm 5 mps 755 mmHg 27%
    14:00 +39°C° 0 mm 5 mps 754 mmHg 25%
    15:00 +38°C° 0 mm 6 mps 754 mmHg 31%
    16:00 +35°C° 0 mm 6 mps 754 mmHg 38%
    17:00 +33°C° 0 mm 7 mps 754 mmHg 44%
    18:00 +32°C° 0 mm 6 mps 755 mmHg 46%
    19:00 +30°C° 0 mm 6 mps 755 mmHg 48%
    20:00 +29°C° 0 mm 6 mps 755 mmHg 50%
    21:00 +29°C° 0 mm 7 mps 755 mmHg 49%
    22:00 +29°C° 0 mm 7 mps 756 mmHg 49%
    23:00 +28°C° 0 mm 7 mps 756 mmHg 49%
    Show more